This demonstration page uses our WeatherBlox Daily Observations layout. Learn more.

39.92423, -83.80882

Hourly Observations for May 27, 2016

Temp ( °F °C ) Dew Point ( °F °C ) Humidity (%) Winds ( mph kmh ) Pressure ( in mb ) Visibility ( mi km ) Precip ( " mm )
12:56 am 00:56 Clear 65 18.3 64 17.7 96 96 S 3 6 30.02 1017 10 16.0934 0 0
1:56 am 01:56 Clear 65 18.3 64 17.7 96 96 S 7 11 30.02 1017 10 16.0934 0 0
2:56 am 02:56 Clear 64 17.7 64 17.7 100 100 S 6 9 30.01 1016 10 16.0934 0 0
3:56 am 03:56 Clear 64 17.7 64 17.7 100 100 SSW 6 9 30.02 1017 10 16.0934 0 0
4:56 am 04:56 Clear 64 17.7 64 17.7 100 100 S 6 9 30.02 1017 10 16.0934 0 0
5:56 am 05:56 Clear 63 17.2 63 17.2 100 100 S 5 7 30.03 1017 10 16.0934 0 0
6:56 am 06:56 Sunny 63 17.2 63 17.2 100 100 SSE 5 7 30.04 1017 10 16.0934 0 0
7:56 am 07:56 Sunny 66 18.8 65 18.3 97 97 S 5 7 30.04 1017 10 16.0934 0 0
8:56 am 08:56 Sunny 70 21.1 65 18.3 84 84 SSW 9 15 30.04 1017 10 16.0934 0 0
9:56 am 09:56 Sunny 74 23.3 66 18.8 76 76 WSW 9 15 30.04 1017 10 16.0934 0 0
10:56 am 10:56 Sunny 77 25 65 18.3 66 66 VRB 5 7 30.03 1017 10 16.0934 0 0
11:56 am 11:56 Sunny 81 27.2 64 17.7 56 56 SW 8 13 30.03 1017 10 16.0934 0 0
12:56 pm 12:56 Sunny 85 29.4 64 17.7 49 49 SSW 12 19 30.03 1017 10 16.0934 0 0
1:56 pm 13:56 Sunny 86 30 64 17.7 48 48 SSW 13 20 30.02 1017 10 16.0934 0 0
2:56 pm 14:56 Sunny 88 31.1 63 17.2 43 43 SW 9 15 30.01 1016 10 16.0934 0 0
3:56 pm 15:56 Sunny 89 31.6 63 17.2 42 42 SW 10 17 29.99 1016 10 16.0934 0 0
4:56 pm 16:56 Partly Cloudy 89 31.6 64 17.7 43 43 S 10 17 29.98 1015 10 16.0934 0 0
5:56 pm 17:56 Partly Cloudy 89 31.6 65 18.3 45 45 SSE 10 17 29.97 1015 10 16.0934 0 0
6:56 pm 18:56 Sunny 86 30 64 17.7 48 48 S 8 13 29.97 1015 10 16.0934 0 0
7:56 pm 19:56 Sunny 83 28.3 64 17.7 53 53 S 5 7 29.98 1015 10 16.0934 0 0
8:56 pm 20:56 Clear 80 26.6 65 18.3 60 60 S 3 6 29.99 1016 10 16.0934 0 0
9:56 pm 21:56 Clear 78 25.5 64 17.7 62 62 S 6 9 30 1016 10 16.0934 0 0
10:56 pm 22:56 Clear 76 24.4 64 17.7 66 66 S 3 6 30.02 1017 10 16.0934 0 0
11:56 pm 23:56 Clear 75 23.8 64 17.7 69 69 SSE 3 6 30.02 1017 10 16.0934 0 0

Powered by AerisWeather